Location: Prague
(50.0830°N, 14.4670°E)
Time: 18:45:28
(UTC+01:00)

O/OREOS (USA 219) - Pass Details

Date: 08 December 2021
Orbit: 621 x 646 km, 72.0° (Epoch: 22 May)

Event Time Altitude Azimuth Distance (km) Brightness Sun altitude
Rises 17:55:54 0° 340° (NNW) 2,953 ? -17.5°
Reaches altitude 10° 17:59:09 10° 4° (N) 2,045 ? -18.0°
Enters shadow 17:59:55 12° 13° (NNE) 1,898 ? -18.2°
